COSMOS 2434 (721)

Last updated on Wed Sep 17 2025 00:03:19 GMT+0000 (Coordinated Universal Time)

1 32393U 07065A 25258.79390394 -.00000001 00000+0 00000+0 0 9994 2 32393 64.3174 201.1694 0001350 42.5937 150.8549 2.13101173137922
UTC large
Height (km)
Speed (km/s)
/
Latitude / Longitude
Inclination (degrees)
Orbital Period (minutes)
Azimuth
Elevation
Range (km)
Doppler Factor

Next 0 passes for location: London (51.5072 / 0.1276)

Sorry there are no passes over London.